Location: Dampvalley
(47.9094°N, 6.1967°E)
Time: 21:30:19
(UTC+00:00)

NOSS 3-2 (C) - Pass Details

Date: 05 March 2021
Orbit: 783 x 1429 km, 63.4° (Epoch: 11 April)

Event Time Altitude Azimuth Distance (km) Brightness Sun altitude
Rises 05:22:33 0° 317° (NW) 3,991 6.3 -8.5°
Reaches altitude 10° 05:25:11 10° 312° (NW) 3,116 5.7 -8.0°
Maximum altitude 05:32:28 51° 240° (WSW) 1,601 4.3 -6.8°
Drops below altitude 10° 05:40:38 10° 168° (SSE) 3,471 6.6 -5.4°
Sets 05:43:43 0° 164° (SSE) 4,478 7.2 -4.9°
